Location: Foots Cray
(51.4000°N, 0.1167°E)
Time: 23:38:42
(UTC+00:00)

Cosmos 1602 Rocket - Pass Details

Date: 15 May 2026
Orbit: 597 x 624 km, 82.5° (Epoch: 11 June)

Event Time Altitude Azimuth Distance (km) Brightness Sun altitude
Rises 20:38:19 0° 354° (N) 2,861 7.8 -7.4°
Reaches altitude 10° 20:40:37 10° 1° (N) 1,956 6.8 -7.7°
Maximum altitude 20:44:46 44° 74° (ENE) 842 4.1 -8.1°
Enters shadow 20:48:47 11° 146° (SSE) 1,909 5.4 -8.6°
